Temp
8 8 9 9 10 10 10 11 11 11 12 12 12 12 12 12 12 12 12 12 12 12 12 12 12 12 12 12 12 12 12 12 12 12 12 12 13 13 14 14 14 14 14 14 14 14 15
8 8 9 9 9 10 10 11 11 11 12 12 12 12 12 12 12 12 12 12 12 12 12 12 12 12 12 12 12 12 12 12 12 12 12 12 13 13 13 14 14 14 14 14 15 15 15
8 9 9 9 9 10 10 10 11 11 12 12 12 12 12 12 12 12 12 12 12 12 12 12 12 12 12 12 12 12 12 13 12 12 12 12 13 13 13 14 14 14 15 15 15 15 15
8 9 9 9 9 10 10 10 11 11 11 12 12 12 12 12 12 12 12 12 12 12 12 12 12 12 12 12 12 12 12 12 12 12 12 12 13 13 14 14 14 14 15 15 15 15 15
8 8 9 9 9 9 10 10 10 11 11 11 12 12 12 12 12 12 12 12 12 12 12 12 12 12 12 12 12 12 12 13 12 12 12 12 13 13 14 14 14 14 14 15 15 14 15
8 8 8 8 9 9 9 9 10 10 11 11 11 11 12 12 12 12 12 12 12 12 12 12 12 12 12 12 11 12 12 12 12 12 12 12 13 13 14 14 14 14 14 15 14 14 15
8 8 8 8 9 9 9 9 9 10 10 11 11 11 11 11 12 12 12 12 11 11 11 12 12 12 12 12 12 11 11 12 12 12 12 12 13 13 14 14 14 14 14 14 15 14 14
7 7 7 8 8 9 9 9 10 10 10 10 11 11 11 11 11 11 11 11 11 11 11 12 12 12 12 12 11 11 11 12 12 12 11 12 12 13 13 14 14 14 14 15 15 14 14
6 7 7 8 8 9 9 10 10 10 10 10 10 11 11 11 11 11 11 11 11 11 11 12 12 12 11 12 12 11 11 11 12 12 12 12 13 13 13 14 14 15 15 16 15 14 14
6 7 7 7 8 8 8 9 9 10 10 10 10 10 10 10 11 11 11 12 11 11 11 12 12 11 12 12 12 11 11 11 11 12 12 12 13 13 13 14 14 15 16 16 16 14 15
6 6 7 7 7 7 7 8 8 8 9 9 10 10 10 10 11 11 11 10 10 10 9 12 12 12 12 12 12 12 11 11 11 11 11 12 13 13 14 14 14 15 16 16 16 14 14
6 6 6 7 7 7 7 7 7 8 8 9 9 9 9 10 10 11 11 10 10 10 10 11 12 12 12 12 11 12 11 11 11 11 12 12 12 14 14 15 14 14 15 15 15 15 13
6 6 6 6 7 7 7 7 7 8 8 9 9 9 9 9 10 10 10 9 9 10 11 12 12 12 12 12 11 12 11 11 11 11 11 12 13 14 14 15 15 15 15 15 13 11 11
5 6 6 6 6 6 7 7 7 8 8 9 9 9 9 9 10 10 10 9 10 12 11 11 12 12 12 12 11 12 12 11 11 12 12 13 14 15 15 15 15 16 15 15 13 9 11
5 5 5 6 6 6 7 7 7 8 8 8 9 9 9 9 9 9 9 9 11 11 11 11 12 12 12 12 12 12 11 11 11 12 12 13 14 15 15 15 15 16 16 16 15 11 11
5 5 5 5 5 6 7 7 7 8 8 8 8 9 9 9 9 8 8 10 11 11 11 11 12 13 13 13 12 12 12 13 12 13 13 13 14 15 15 15 16 15 15 15 15 9 10
5 5 5 5 5 6 7 7 7 8 8 8 8 9 9 9 8 8 8 9 11 11 11 11 12 13 13 13 13 13 13 14 14 14 13 13 13 15 15 14 15 15 15 15 15 14 8
4 5 5 5 5 5 6 7 7 8 8 8 8 8 8 8 7 8 8 9 10 11 11 11 12 12 12 12 13 13 14 14 14 14 13 13 13 13 14 14 15 16 16 16 16 13 13
4 4 5 5 5 5 6 7 7 8 7 7 8 8 8 8 8 8 8 8 10 11 11 11 11 12 13 13 14 14 15 15 14 14 14 14 13 13 14 14 15 15 16 16 16 15 15
3 4 5 5 5 5 6 7 7 8 7 7 8 8 8 7 7 7 8 9 10 11 11 12 12 13 13 14 14 14 14 14 14 14 14 14 14 14 15 15 15 15 16 15 16 16 15
3 4 4 5 5 5 5 6 7 7 7 7 8 8 8 7 7 8 9 9 10 11 12 12 13 13 13 14 14 14 14 14 15 15 14 14 14 15 15 15 15 15 15 15 15 15 16
3 3 4 4 5 5 5 5 6 7 8 7 8 8 8 8 8 8 9 10 11 12 12 12 12 13 14 14 14 14 14 15 14 14 13 14 15 15 14 14 14 14 14 14 14 14 15
3 3 4 4 4 5 5 5 6 7 7 8 8 8 8 8 8 8 9 10 11 12 12 12 12 13 13 13 13 13 13 14 14 14 14 14 14 14 14 14 14 14 14 14 14 14 14
3 3 3 4 4 5 5 5 5 6 7 7 8 8 8 8 8 9 9 10 11 11 11 12 12 13 13 13 13 12 13 13 13 13 13 13 13 14 13 13 11 14 14 15 14 14 14
3 3 3 4 4 4 5 5 5 5 6 7 7 8 8 8 9 9 9 9 10 11 11 11 12 12 12 12 12 12 12 12 13 12 12 12 12 13 13 13 12 13 14 14 14 14 14
3 3 3 4 4 4 5 5 5 5 5 6 7 7 7 8 8 8 9 8 9 10 11 11 11 11 11 11 11 12 12 12 12 12 12 11 12 11 13 12 9 13 13 13 12 13 13
3 3 3 4 4 5 5 5 5 5 5 6 6 7 7 8 8 8 9 9 9 9 9 9 10 10 10 11 11 11 11 12 12 12 11 11 11 12 12 12 12 13 12 12 11 13 13
3 3 3 4 4 4 4 5 5 5 5 6 6 6 7 7 8 8 8 8 9 9 9 10 10 10 10 10 10 11 11 11 11 12 12 12 12 12 12 11 12 12 12 11 12 12 12
3 3 4 4 4 4 4 4 5 5 5 5 6 6 6 7 7 7 7 8 8 8 8 8 9 9 9 10 10 10 10 11 11 11 11 11 12 12 12 12 12 13 12 12 12 11 11
Height
3165 3163 3160 3157 3155 3153 3151 3149 3147 3146 3144 3143 3142 3141 3140 3139 3139 3138 3138 3139 3139 3139 3140 3140 3141 3142 3145 3148 3151 3154 3157 3162 3165 3169 3172 3174 3174 3174 3174 3174 3175 3175 3176 3176 3176 3177 3177
3166 3163 3160 3157 3154 3151 3149 3147 3146 3144 3143 3142 3141 3140 3138 3138 3137 3137 3137 3137 3137 3138 3138 3139 3140 3141 3144 3148 3150 3152 3156 3160 3165 3169 3172 3173 3174 3174 3175 3175 3175 3176 3176 3177 3176 3175 3175
3165 3162 3159 3156 3153 3150 3147 3145 3143 3142 3141 3140 3138 3138 3137 3136 3135 3135 3135 3135 3135 3136 3137 3138 3139 3141 3143 3148 3149 3152 3155 3159 3163 3168 3171 3172 3173 3174 3175 3176 3176 3176 3176 3177 3175 3174 3175
3163 3160 3156 3153 3150 3147 3145 3143 3141 3139 3138 3137 3136 3135 3134 3133 3133 3133 3133 3133 3133 3134 3135 3136 3138 3140 3143 3144 3147 3151 3154 3159 3163 3167 3169 3171 3172 3174 3176 3176 3176 3176 3177 3175 3175 3174 3173
3161 3157 3153 3150 3147 3144 3141 3139 3137 3136 3134 3133 3132 3132 3131 3131 3130 3130 3130 3131 3132 3133 3134 3135 3137 3139 3141 3145 3148 3151 3153 3158 3162 3167 3169 3169 3171 3173 3175 3176 3177 3177 3175 3176 3175 3173 3172
3158 3154 3150 3147 3144 3140 3137 3135 3133 3131 3130 3129 3128 3128 3127 3127 3128 3128 3128 3129 3130 3131 3132 3134 3136 3140 3141 3144 3148 3150 3153 3157 3161 3165 3168 3169 3171 3172 3174 3176 3177 3176 3176 3176 3174 3173 3172
3155 3151 3147 3143 3139 3136 3133 3130 3128 3127 3126 3125 3124 3124 3124 3124 3125 3125 3127 3127 3131 3131 3131 3133 3134 3135 3138 3143 3146 3149 3152 3155 3160 3164 3166 3168 3171 3171 3174 3175 3176 3176 3175 3175 3173 3174 3174
3152 3148 3144 3140 3136 3132 3129 3126 3124 3122 3121 3120 3120 3120 3120 3121 3122 3123 3124 3125 3126 3129 3129 3130 3133 3134 3136 3139 3144 3147 3151 3155 3158 3162 3165 3168 3168 3172 3173 3175 3175 3175 3173 3174 3173 3173 3174
3151 3146 3142 3137 3132 3128 3124 3120 3118 3117 3116 3115 3116 3116 3116 3118 3119 3121 3122 3123 3125 3126 3127 3128 3130 3133 3136 3140 3142 3145 3150 3153 3157 3161 3164 3165 3168 3170 3172 3174 3174 3173 3172 3173 3173 3173 3174
3149 3144 3139 3133 3128 3123 3118 3114 3111 3111 3111 3111 3111 3112 3113 3115 3119 3118 3119 3122 3125 3126 3126 3127 3128 3132 3136 3138 3142 3146 3149 3154 3156 3160 3164 3165 3167 3168 3170 3170 3172 3170 3172 3172 3171 3173 3173
3147 3141 3136 3130 3125 3120 3115 3111 3108 3106 3107 3107 3108 3108 3110 3112 3114 3116 3119 3122 3124 3126 3126 3127 3127 3130 3133 3139 3140 3141 3147 3152 3155 3159 3163 3165 3165 3167 3167 3169 3170 3170 3171 3171 3170 3171 3172
3145 3139 3133 3128 3122 3117 3113 3109 3106 3105 3104 3104 3104 3105 3107 3110 3112 3114 3117 3121 3125 3128 3124 3125 3126 3128 3132 3136 3138 3140 3144 3151 3155 3159 3160 3161 3163 3163 3164 3166 3168 3169 3170 3171 3171 3171 3172
3143 3137 3131 3125 3120 3115 3111 3107 3105 3103 3102 3101 3101 3102 3105 3107 3110 3113 3116 3121 3126 3124 3125 3126 3126 3128 3131 3135 3138 3140 3143 3147 3152 3156 3157 3160 3160 3161 3163 3164 3166 3167 3169 3171 3173 3174 3173
3141 3135 3128 3123 3117 3113 3109 3106 3103 3101 3099 3099 3099 3100 3102 3105 3108 3111 3116 3121 3123 3121 3122 3123 3125 3127 3129 3134 3137 3139 3142 3145 3149 3153 3156 3158 3160 3160 3162 3164 3165 3165 3168 3170 3174 3176 3172
3140 3133 3127 3121 3116 3111 3107 3104 3101 3099 3097 3097 3097 3098 3100 3104 3107 3111 3116 3119 3119 3121 3122 3122 3124 3126 3128 3133 3137 3138 3141 3144 3147 3151 3155 3156 3156 3158 3160 3161 3164 3164 3165 3169 3169 3172 3172
3139 3132 3126 3120 3114 3109 3105 3102 3099 3097 3096 3096 3096 3097 3100 3103 3107 3112 3115 3116 3119 3120 3121 3122 3124 3125 3127 3131 3135 3137 3140 3141 3143 3147 3152 3155 3155 3155 3157 3158 3160 3161 3164 3166 3167 3174 3176
3138 3132 3125 3120 3114 3108 3104 3101 3098 3097 3096 3095 3096 3097 3100 3103 3107 3112 3113 3115 3117 3119 3120 3122 3123 3124 3128 3131 3133 3134 3136 3139 3141 3144 3149 3152 3154 3154 3154 3154 3155 3159 3161 3164 3166 3167 3169
3137 3131 3125 3120 3114 3108 3104 3101 3098 3097 3096 3097 3097 3098 3100 3104 3109 3110 3112 3114 3116 3118 3119 3121 3122 3124 3126 3127 3128 3131 3132 3135 3138 3141 3144 3149 3152 3152 3152 3150 3150 3154 3157 3160 3161 3164 3164
3137 3131 3125 3119 3114 3108 3104 3101 3099 3098 3098 3099 3099 3100 3102 3105 3108 3110 3111 3112 3112 3115 3118 3120 3121 3122 3124 3123 3126 3127 3127 3131 3135 3138 3141 3145 3148 3150 3150 3150 3148 3151 3154 3156 3158 3158 3160
3137 3130 3124 3118 3113 3109 3104 3101 3100 3099 3100 3101 3102 3103 3105 3106 3108 3109 3109 3110 3112 3114 3117 3118 3118 3121 3122 3121 3122 3123 3122 3125 3130 3134 3138 3142 3144 3145 3147 3148 3149 3150 3152 3154 3155 3156 3155
3137 3130 3124 3118 3114 3109 3105 3101 3100 3100 3100 3103 3103 3104 3105 3106 3107 3108 3109 3109 3111 3113 3115 3115 3116 3119 3120 3120 3121 3122 3123 3124 3127 3129 3133 3139 3141 3143 3144 3145 3147 3148 3149 3150 3152 3153 3153
3136 3130 3124 3118 3114 3109 3105 3102 3100 3100 3100 3102 3103 3104 3105 3106 3107 3108 3108 3108 3110 3112 3114 3114 3115 3117 3118 3120 3122 3122 3124 3125 3126 3129 3130 3136 3138 3140 3142 3143 3145 3146 3147 3148 3149 3150 3150
3136 3130 3124 3119 3114 3110 3106 3103 3100 3099 3100 3100 3102 3103 3105 3106 3107 3108 3108 3108 3108 3110 3113 3113 3114 3115 3117 3120 3123 3121 3123 3125 3127 3129 3132 3136 3136 3138 3140 3141 3143 3145 3145 3145 3145 3145 3147
3135 3129 3124 3119 3114 3110 3106 3103 3101 3099 3099 3100 3101 3103 3104 3105 3107 3108 3108 3107 3108 3110 3112 3113 3114 3116 3117 3120 3122 3124 3124 3125 3128 3129 3130 3136 3137 3138 3137 3138 3143 3141 3141 3141 3141 3141 3142
3133 3128 3123 3119 3114 3110 3107 3104 3101 3099 3098 3098 3099 3100 3102 3103 3105 3107 3109 3108 3110 3110 3112 3114 3115 3116 3117 3119 3121 3121 3122 3124 3125 3129 3129 3135 3137 3137 3136 3137 3138 3137 3137 3137 3137 3138 3138
3131 3126 3122 3118 3114 3110 3107 3104 3101 3099 3098 3097 3097 3098 3100 3102 3103 3105 3108 3108 3110 3110 3112 3113 3114 3116 3117 3118 3120 3119 3119 3119 3121 3121 3121 3129 3130 3137 3132 3133 3132 3131 3132 3133 3134 3135 3135
3128 3124 3120 3117 3113 3110 3107 3104 3101 3099 3098 3096 3096 3096 3097 3099 3101 3104 3106 3107 3109 3110 3111 3113 3114 3116 3117 3117 3117 3118 3120 3121 3120 3120 3120 3122 3125 3126 3128 3127 3126 3128 3130 3131 3133 3135 3134
3126 3122 3118 3115 3112 3109 3106 3103 3101 3099 3097 3096 3094 3094 3095 3096 3099 3101 3103 3104 3106 3108 3109 3112 3114 3114 3115 3116 3117 3118 3117 3118 3118 3118 3118 3119 3120 3122 3123 3124 3125 3124 3126 3129 3128 3129 3131
3123 3119 3116 3113 3110 3107 3105 3102 3100 3098 3097 3095 3094 3093 3093 3094 3096 3098 3100 3103 3104 3106 3107 3108 3109 3109 3111 3114 3115 3114 3115 3114 3115 3115 3116 3118 3118 3118 3120 3119 3119 3119 3121 3123 3124 3125 3127
Wind_Speed
16 15 15 15 14 13 12 11 12 11 10 9 9 8 8 7 7 6 6 6 6 6 6 6 6 8 12 16 16 21 21 32 27 25 18 9 7 9 5 6 1 4 2 2 4 7 9
16 16 16 16 16 15 14 13 12 12 12 11 10 9 9 9 8 7 7 7 6 6 6 6 6 8 13 19 17 23 24 34 31 26 16 7 7 6 5 4 3 1 4 5 7 10 9
18 18 18 18 17 17 16 15 14 13 13 13 12 11 10 10 9 8 7 7 7 6 6 6 7 9 14 20 18 22 25 38 34 25 15 9 8 6 7 5 1 2 6 4 5 3 8
21 21 21 21 20 18 18 17 16 16 14 14 14 13 12 11 10 9 8 8 7 7 6 7 7 9 17 22 18 19 22 39 34 24 13 8 10 9 14 9 2 1 4 5 3 5 10
23 24 24 23 23 21 20 19 18 17 16 15 14 13 13 12 11 9 9 8 7 7 7 7 7 10 20 20 17 13 21 38 34 24 14 11 13 12 12 10 4 2 5 6 6 13 7
25 25 25 24 24 23 22 21 19 18 16 16 14 13 12 12 11 10 9 8 8 8 7 6 7 9 15 21 17 14 20 34 34 26 17 16 15 17 14 8 2 4 10 9 9 11 2
25 25 25 25 25 24 23 21 19 19 17 16 15 13 12 11 11 9 9 9 9 8 7 7 7 11 13 17 19 18 21 30 34 27 20 22 23 19 13 9 8 10 12 10 6 3 4
24 24 25 25 24 24 23 22 20 19 17 16 15 14 12 11 10 9 9 11 10 7 5 9 11 14 13 22 24 20 22 28 32 27 25 22 24 18 18 13 11 11 10 5 6 4 6
25 26 26 26 26 26 25 24 22 19 16 15 15 14 12 11 10 9 11 13 10 8 6 8 12 15 15 20 25 25 24 25 32 28 29 27 7 14 12 11 10 9 8 5 8 8 4
27 28 28 28 27 27 26 24 20 17 14 14 14 13 12 11 10 12 14 11 8 6 6 4 12 18 14 15 19 24 23 24 24 27 28 25 17 13 9 9 8 7 4 6 9 8 4
29 31 31 29 28 26 23 22 16 12 11 12 12 13 12 11 12 14 14 10 8 3 3 3 13 19 14 13 8 22 28 27 24 21 22 14 11 10 11 6 5 6 2 3 9 6 8
30 32 32 29 27 24 20 18 14 10 9 11 11 12 11 12 14 15 13 12 7 2 3 4 14 15 18 16 7 15 25 29 24 20 20 17 12 13 12 5 6 9 9 3 2 5 1
31 32 31 28 26 22 17 15 13 10 8 10 10 11 10 13 15 15 14 13 4 4 1 5 11 16 18 16 11 14 27 31 24 19 23 19 18 16 11 9 6 6 8 0 2 2 4
32 32 30 27 25 21 15 13 14 12 9 8 8 9 11 15 16 16 16 17 6 1 1 1 8 13 17 18 13 18 23 29 26 14 3 9 9 16 11 9 6 9 12 5 4 3 2
32 33 30 27 25 21 15 13 14 13 7 6 6 8 11 14 18 17 18 21 2 4 6 1 7 11 16 20 12 14 22 23 23 23 11 6 8 13 14 10 7 11 14 9 4 5 1
32 33 31 27 25 22 16 12 13 10 5 4 3 6 10 15 19 18 20 13 5 4 2 4 5 8 17 22 12 13 16 15 26 25 20 7 10 7 3 18 18 13 8 6 5 4 1
32 32 30 27 25 23 16 12 11 7 4 0 5 9 13 18 21 20 22 17 12 2 4 4 5 9 12 8 12 17 9 11 14 24 26 24 14 6 5 2 17 16 13 7 3 4 8
31 31 30 26 25 23 17 12 8 4 2 6 7 12 16 18 23 20 20 17 14 10 5 6 2 5 1 8 7 14 23 19 10 21 25 24 10 18 14 13 10 16 15 12 10 8 6
31 31 30 25 24 22 18 12 6 3 7 9 9 16 19 17 14 9 11 8 13 15 8 11 8 6 7 5 2 8 21 20 18 14 20 23 15 15 9 2 5 17 16 10 11 12 12
33 31 31 26 24 21 19 12 5 3 10 9 13 9 15 15 10 6 5 6 8 7 7 8 9 5 5 2 4 6 7 11 17 15 15 20 21 13 8 7 11 16 15 12 11 10 12
31 30 31 27 24 20 18 14 6 2 12 8 9 5 10 11 7 3 2 4 10 9 6 3 10 10 5 1 6 7 14 12 12 16 23 24 20 16 17 12 14 13 10 11 13 10 12
31 29 29 27 25 21 19 14 7 1 5 12 8 6 7 8 6 3 3 5 9 10 8 3 10 10 8 6 2 11 18 15 13 10 20 20 14 17 14 13 11 9 9 8 11 10 14
33 28 28 26 24 21 19 15 9 2 4 8 10 8 10 10 5 3 3 7 12 13 8 6 6 6 6 5 12 18 17 14 17 18 17 14 17 16 10 10 9 8 12 11 13 17 15
31 27 26 26 22 22 19 17 13 5 1 4 8 11 10 9 8 5 4 13 17 13 14 11 10 6 8 14 14 12 15 13 8 9 8 4 5 3 4 2 2 15 16 16 16 17 14
30 27 25 24 21 20 18 16 14 10 2 3 7 9 12 13 9 9 6 7 12 17 17 15 14 11 11 10 9 12 13 15 18 19 31 14 9 7 4 9 9 11 14 16 15 17 14
28 26 23 23 22 18 17 14 14 11 7 1 5 9 10 12 12 11 10 7 14 18 16 16 16 11 12 9 10 4 3 5 4 10 23 24 33 27 16 11 9 15 12 14 15 15 15
25 24 21 21 21 17 16 14 12 11 9 4 2 6 8 10 11 11 11 14 9 11 11 14 12 10 13 12 9 6 5 5 5 7 12 26 31 26 24 17 10 11 12 16 15 14 16
25 23 19 20 20 18 15 14 11 10 9 7 2 4 6 9 11 12 12 12 13 13 12 13 12 10 10 14 14 15 14 15 15 16 11 10 13 23 23 15 14 16 13 19 16 20 14
22 21 19 20 20 18 14 13 11 9 8 7 5 3 4 6 9 12 15 15 13 12 13 12 13 13 12 8 10 10 10 14 16 17 19 15 19 17 18 17 21 17 11 17 18 14 9
Wind_Direction
7 3 359 354 350 345 341 337 332 327 324 321 324 323 318 311 304 294 279 275 277 278 270 245 226 208 189 177 172 170 172 175 173 170 168 137 164 156 131 110 14 276 303 305 310 314 330
355 354 350 347 343 339 333 328 324 317 315 310 309 310 311 307 300 294 280 266 268 268 262 242 223 201 183 172 174 172 176 176 176 175 165 140 150 155 142 144 107 17 270 300 283 287 277
345 342 339 336 334 331 328 323 318 311 306 300 298 298 296 299 294 288 278 263 258 251 253 242 221 196 182 175 177 181 179 178 181 175 157 148 156 165 155 174 27 249 280 285 280 282 270
341 337 334 331 328 325 320 318 314 308 302 296 292 290 288 287 287 278 273 259 254 249 249 241 216 193 174 187 182 179 180 182 186 175 158 169 181 182 179 192 177 354 46 88 8 291 270
337 334 332 329 326 323 319 314 308 303 299 294 291 287 281 279 277 270 266 254 251 243 243 233 210 190 184 191 180 176 182 188 189 177 174 200 197 195 203 195 215 313 12 13 359 339 257
335 333 332 329 326 322 318 313 307 301 294 290 285 284 278 272 268 264 259 244 239 239 236 219 209 185 195 191 182 182 185 190 190 188 192 204 203 207 213 207 177 321 343 342 341 351 316
335 333 331 328 326 321 317 312 308 303 294 283 281 278 273 264 258 256 250 232 231 238 234 216 198 197 182 178 182 181 182 189 191 193 200 207 208 216 219 222 254 303 319 330 337 341 311
339 337 334 331 328 324 318 311 305 304 296 280 274 268 266 256 248 243 238 228 227 224 217 222 209 196 183 182 176 178 179 187 190 196 205 218 231 237 224 225 257 294 312 337 337 224 266
349 344 339 335 332 327 320 311 301 296 290 275 268 261 257 247 235 228 223 228 229 228 245 245 210 198 192 192 190 181 184 186 195 199 211 226 219 199 216 227 262 289 278 321 309 258 259
348 346 342 339 337 333 328 322 307 287 278 268 262 258 248 238 222 218 219 229 222 244 274 231 199 185 198 199 205 196 190 193 196 205 215 232 208 204 217 245 285 265 262 292 303 237 213
348 347 343 340 339 338 333 332 320 294 271 260 259 253 242 224 213 213 223 209 215 257 354 185 177 180 188 186 203 201 201 198 201 197 200 204 218 218 220 227 317 280 303 306 311 202 165
344 343 342 341 340 339 335 335 331 313 284 268 259 248 234 219 207 209 211 203 203 269 265 144 175 187 191 175 166 195 193 195 201 205 217 228 225 210 215 229 297 301 301 258 149 175 160
347 344 343 343 342 341 336 333 331 324 298 273 256 239 222 217 204 205 202 194 205 230 121 169 187 192 203 188 171 196 191 194 200 211 228 235 223 211 239 258 272 247 223 94 16 357 222
351 349 348 346 345 343 336 331 326 324 305 280 249 233 210 210 198 196 189 179 205 127 74 127 187 203 202 184 178 186 191 198 207 204 139 219 224 220 231 243 255 239 219 202 194 203 256
353 352 351 349 349 345 339 331 324 326 307 277 249 220 207 199 196 191 182 179 154 100 39 37 168 182 185 192 200 199 202 211 212 209 213 209 240 216 233 231 221 223 213 227 164 102 57
354 354 353 353 351 348 344 336 325 333 317 296 238 203 192 188 192 187 185 190 183 100 91 128 154 179 178 187 201 200 203 220 212 207 211 232 258 232 263 238 237 221 229 167 165 126 210
353 354 354 356 354 351 350 346 336 343 339 102 164 167 170 179 186 192 202 211 204 183 128 123 121 156 161 183 225 215 213 215 207 217 216 224 239 205 300 269 228 205 208 204 196 179 154
353 353 354 355 356 354 352 354 351 4 86 128 154 158 159 172 185 204 219 229 238 194 202 207 177 193 150 315 240 228 237 230 217 204 209 213 241 258 269 313 214 199 222 226 209 201 196
356 355 355 355 356 357 353 0 11 59 137 142 139 139 150 160 181 200 229 238 234 224 242 227 262 203 299 313 201 238 239 239 240 214 214 208 224 252 299 292 176 196 204 193 203 184 189
356 354 355 357 358 359 356 2 19 114 161 157 155 149 158 161 155 156 213 210 206 184 176 240 250 237 259 336 286 274 171 210 223 228 214 211 221 216 213 236 192 184 199 210 206 191 198
352 353 355 357 0 0 2 359 16 133 180 175 192 184 170 175 169 172 176 181 183 174 214 238 238 237 207 200 256 216 173 190 203 229 223 210 215 226 255 205 188 189 193 214 223 240 217
353 352 354 357 360 2 5 5 8 101 185 200 207 191 165 164 128 108 182 186 183 181 189 185 205 221 204 190 259 200 175 171 150 147 185 201 221 195 178 186 194 205 205 209 209 229 232
353 352 354 355 358 1 3 10 10 22 181 194 201 188 179 176 166 174 168 173 166 152 150 169 171 190 195 237 189 166 167 162 162 153 157 182 180 183 186 215 245 256 246 233 240 244 240
348 349 351 354 355 359 360 4 15 17 211 195 196 201 195 198 202 203 152 156 146 145 153 164 163 175 158 187 194 212 196 191 194 169 148 142 190 213 148 230 279 266 268 266 264 259 256
341 345 348 351 352 355 358 0 5 17 16 206 206 207 207 215 212 195 179 160 159 164 164 168 169 186 165 172 192 214 222 217 218 251 252 263 282 260 224 235 249 264 268 261 255 253 251
340 340 342 347 350 351 355 355 359 7 12 303 216 214 211 208 212 212 204 182 167 177 177 180 170 170 184 182 211 212 210 219 243 247 224 231 238 246 218 230 203 259 254 251 232 247 239
338 339 338 344 347 348 350 351 352 356 7 356 254 222 214 207 207 201 193 204 193 191 193 196 212 203 211 211 205 232 240 226 224 223 210 217 216 227 232 233 249 255 229 226 215 253 238
337 338 337 341 342 343 347 348 346 352 357 1 331 250 227 211 209 206 199 199 203 211 200 192 200 216 219 226 237 244 245 250 252 253 256 241 238 247 246 253 257 260 242 220 250 245 244
338 341 338 338 339 339 339 344 344 342 352 356 356 310 250 219 209 204 206 210 214 212 221 219 224 227 216 214 227 243 243 251 256 246 251 251 256 259 247 249 257 257 247 247 250 253 249